[[{"header":{"parameterUnit":"m.s-1","parameterCategory":1,"la1":30.2991,"la2":30.254,"lo1":-89.0895,"lo2":-89.0444,"dy":0.0017,"dx":0.0017,"nx":28,"ny":28,"refTime":"2025-03-12T21:00:00:Z","depth":0,"parameterNumber":2,"parameterNumberName":"U-component_of_WINDS"},"data":[0,0,0,0,0,0,0,0,0,0,0,0,0,0,0,0,0,0,0,0,0,0,0,0,0,0,0,0,0,0,0,0,0,0,0,0,0,0,0,0,0,0,0,0,0,0,0,0,0,0,0,0,0,0,0,0,0,0,-0.5891,-0.5891,0,-0.5905,-0.5905,-0.5905,-0.5894,-0.5894,-0.5893,-0.5893,-0.5906,-0.5907,-0.5908,0,0,0,0,0,0,0,0,0,0,0,0,0,-0.5856,-0.5856,-0.5891,-0.5891,-0.5891,-0.5905,-0.5905,-0.5905,-0.5894,-0.5894,-0.5893,-0.5893,-0.5906,-0.5907,-0.5908,0,0,0,0,0,0,0,0,0,0,0,0,0,-0.587,-0.5856,-0.5891,-0.5887,-0.5887,-0.5905,-0.5905,-0.5905,-0.5894,-0.5894,-0.5893,-0.5892,-0.5906,-0.5907,-0.5908,-0.5929,0,0,-0.5912,-0.5912,0,0,0,0,0,0,0,0,-0.5869,-0.5872,-0.5888,-0.5888,-0.5888,-0.5897,-0.5897,-0.5913,-0.5894,-0.5892,-0.5893,-0.5892,-0.5904,-0.5905,-0.5909,-0.593,-0.593,-0.5912,-0.5912,-0.5913,-0.5913,0,0,0,0,0,0,0,-0.5868,-0.5871,-0.5896,-0.5888,-0.5888,-0.5885,-0.5887,-0.59,-0.5901,-0.5892,-0.5891,-0.5893,-0.5903,-0.5908,-0.5909,-0.593,-0.5912,-0.5913,-0.5913,-0.5914,-0.5969,-0.597,0,0,0,0,0,0,-0.5868,-0.587,-0.5896,-0.5897,-0.5877,-0.5887,-0.5888,-0.5895,-0.5901,-0.5901,-0.5893,-0.5892,-0.5906,-0.5908,-0.591,-0.5935,-0.5913,-0.5914,-0.5915,-0.5969,-0.597,-0.597,0,0,0,0,0,0,-0.5867,-0.587,-0.5895,-0.5883,-0.5886,-0.5888,-0.5895,-0.5895,-0.59,-0.5902,-0.5902,-0.5898,-0.5906,-0.5908,-0.5924,-0.5935,-0.5914,-0.5916,-0.5968,-0.5969,-0.597,-0.5985,0,0,0,0,0,0,-0.5866,-0.587,-0.5878,-0.5883,-0.5887,-0.591,-0.5896,-0.5896,-0.5902,-0.59,-0.5906,-0.5907,-0.5905,-0.5923,-0.5926,-0.5936,-0.5916,-0.5967,-0.5968,-0.597,-0.5984,-0.5987,-0.5989,0,0,0,0,0,-0.5865,-0.5881,-0.5878,-0.5881,-0.5897,-0.591,-0.5912,-0.5911,-0.5903,-0.5911,-0.5913,-0.5907,-0.5934,-0.5924,-0.5928,-0.5939,-0.5966,-0.5968,-0.597,-0.5982,-0.5986,-0.5989,0,0,0,0,0,0,-0.5876,-0.5882,-0.5879,-0.5898,-0.5904,-0.5909,-0.5919,-0.5914,-0.5923,-0.5921,-0.5918,-0.592,-0.5937,-0.594,-0.5929,-0.596,-0.5949,-0.5951,-0.5957,-0.5961,-0.5964,-0.5962,-0.5917,0,0,0,0,0,-0.5881,-0.5892,-0.5896,-0.5913,-0.5916,-0.5917,-0.5923,-0.5921,-0.5927,-0.5929,-0.5932,-0.5938,-0.5948,-0.5955,-0.5964,-0.5984,-0.5986,-0.5994,-0.5997,-0.5999,-0.6001,-0.6012,-0.6015,-0.5976,-0.5976,-0.5976,0,0,-0.5891,-0.5896,-0.5902,-0.5915,-0.5919,-0.5931,-0.5919,-0.5931,-0.5939,-0.5931,-0.5947,-0.5949,-0.5956,-0.5975,-0.5983,-0.5977,-0.6012,-0.6001,-0.6003,-0.6003,-0.6014,-0.6018,-0.6021,-0.5977,-0.5977,-0.5977,0,0,-0.5915,-0.5919,-0.5934,-0.5939,-0.5946,-0.5946,-0.595,-0.5956,-0.5957,-0.5973,-0.5967,-0.5977,-0.5994,-0.5999,-0.6004,-0.6031,-0.6026,-0.6034,-0.6048,-0.6059,-0.6062,-0.6065,-0.6074,-0.6078,-0.6036,-0.6036,-0.6036,0,-0.5926,-0.5943,-0.5941,-0.5954,-0.596,-0.5954,-0.5968,-0.5973,-0.5983,-0.5987,-0.5981,-0.6002,-0.6006,-0.6026,-0.6033,-0.6037,-0.6041,-0.6033,-0.6062,-0.6065,-0.6067,-0.6076,-0.6079,-0.6037,-0.6037,-0.6037,-0.6037,0,-0.5956,-0.5968,-0.5978,-0.5988,-0.5996,-0.6009,-0.601,-0.6017,-0.6015,-0.6016,-0.6033,-0.6038,-0.6048,-0.6053,-0.6051,-0.6072,-0.6068,-0.6062,-0.6051,-0.6072,-0.608,-0.6083,-0.6038,-0.6038,-0.6038,-0.6038,0,0,-0.5987,-0.5996,-0.6,-0.6005,-0.6013,-0.6022,-0.6035,-0.6046,-0.6052,-0.6059,-0.607,-0.6085,-0.608,-0.6085,-0.6084,-0.6094,-0.6114,-0.6086,-0.6086,-0.6091,-0.6138,-0.6143,-0.6147,-0.6111,-0.6112,-0.6113,-0.6138,0,-0.601,-0.6034,-0.6033,-0.6055,-0.6066,-0.6061,-0.6072,-0.6079,-0.6081,-0.609,-0.6092,-0.6103,-0.6095,-0.6098,-0.6108,-0.611,-0.6124,-0.6108,-0.6121,-0.6122,-0.6119,-0.6151,-0.6155,-0.6179,-0.6141,-0.6142,-0.6142,0,-0.6041,-0.605,-0.6072,-0.6079,-0.6084,-0.6094,-0.6104,-0.6113,-0.612,-0.6121,-0.6128,-0.6125,-0.6139,-0.6128,-0.6147,-0.6136,-0.6142,-0.6144,-0.6145,-0.6145,-0.6133,-0.6152,-0.6186,-0.619,-0.6147,-0.6147,-0.6146,0,-0.606,-0.6078,-0.6094,-0.6098,-0.6106,-0.6114,-0.6118,-0.6124,-0.6131,-0.614,-0.6144,-0.6154,-0.6159,-0.6167,-0.6167,-0.6159,-0.6186,-0.6175,-0.6187,-0.6187,-0.6192,-0.6192,-0.6228,-0.6197,-0.6197,-0.6197,-0.6197,0,-0.6087,-0.6101,-0.6103,-0.6112,-0.6128,-0.6128,-0.6143,-0.6147,-0.6153,-0.6163,-0.6159,-0.6169,-0.6169,-0.6179,-0.618,-0.6195,-0.6198,-0.6199,-0.6198,-0.6199,-0.6198,-0.6202,-0.62,-0.6198,-0.6198,-0.6198,-0.6197,0,-0.6111,-0.6113,-0.613,-0.6137,-0.6139,-0.615,-0.6156,-0.6165,-0.6167,-0.6181,-0.6184,-0.6187,-0.6198,-0.62,-0.6213,-0.6214,-0.6232,-0.6231,-0.623,-0.6229,-0.6241,-0.624,-0.6279,-0.6284,-0.6251,-0.6252,-0.6252,0,-0.6127,-0.6138,-0.6146,-0.6153,-0.6157,-0.6168,-0.6175,-0.6175,-0.6182,-0.6192,-0.62,-0.6211,-0.622,-0.6239,-0.6243,-0.6253,-0.6252,-0.6265,-0.6253,-0.6253,-0.6251,-0.625,-0.6251,-0.6267,-0.6267,-0.6267,-0.6268,0,-0.6155,-0.6156,-0.6166,-0.6176,-0.6185,-0.6193,-0.62,-0.6206,-0.6208,-0.6216,-0.6228,-0.6235,-0.6249,-0.6261,-0.6271,-0.6275,-0.6272,-0.6272,-0.6275,-0.6275,-0.6274,-0.6274,-0.6235,-0.627,-0.627,-0.627,-0.627,-0.627,-0.6176,-0.6185,-0.6193,-0.6204,-0.621,-0.6217,-0.6226,-0.623,-0.624,-0.6252,-0.6252,-0.6265,-0.6272,-0.6286,-0.6291,-0.6301,-0.6297,-0.6302,-0.6303,-0.6304,-0.6305,-0.6273,-0.6303,-0.6303,-0.6303,-0.6303,-0.6303,0,-0.6204,-0.6209,-0.6219,-0.623,-0.6239,-0.6236,-0.6244,-0.6252,-0.6264,-0.6271,-0.628,-0.6294,-0.6306,-0.631,-0.6321,-0.6329,-0.6327,-0.6332,-0.6331,-0.6332,-0.6308,-0.6304,-0.6332,-0.6332,-0.6332,-0.6332,-0.6332,-0.6332,-0.6219,-0.6235,-0.6237,-0.6256,-0.626,-0.6273,-0.6279,-0.6286,-0.6291,-0.6307,-0.6317,-0.632,-0.6326,-0.6338,-0.6348,-0.6349,-0.6353,-0.6358,-0.6358,-0.6336,-0.6333,-0.633,-0.6326,-0.6359,-0.6359,-0.6381,-0.6381,-0.6381]},{"header":{"parameterUnit":"m.s-1","parameterCategory":1,"la1":30.2991,"la2":30.254,"lo1":-89.0895,"lo2":-89.0444,"dy":0.0017,"dx":0.0017,"nx":28,"ny":28,"refTime":"2025-03-12T21:00:00:Z","depth":0,"parameterNumber":3,"parameterNumberName":"V-component_of_WINDS"},"data":[0,0,0,0,0,0,0,0,0,0,0,0,0,0,0,0,0,0,0,0,0,0,0,0,0,0,0,0,0,0,0,0,0,0,0,0,0,0,0,0,0,0,0,0,0,0,0,0,0,0,0,0,0,0,0,0,0,0,2.3933,2.3933,0,2.3902,2.3902,2.3902,2.3879,2.3879,2.3879,2.3879,2.3844,2.3844,2.3843,0,0,0,0,0,0,0,0,0,0,0,0,0,2.3971,2.397,2.3933,2.3933,2.3932,2.3902,2.3902,2.3902,2.3879,2.3879,2.3879,2.3878,2.3845,2.3844,2.3843,0,0,0,0,0,0,0,0,0,0,0,0,0,2.3949,2.397,2.3933,2.3918,2.3916,2.3903,2.3902,2.3901,2.3879,2.3879,2.3879,2.3878,2.3845,2.3844,2.3843,2.3842,0,0,2.3839,2.3839,0,0,0,0,0,0,0,0,2.395,2.3947,2.392,2.3919,2.3917,2.3894,2.3903,2.3881,2.3879,2.3893,2.3879,2.3878,2.3861,2.3859,2.3853,2.384,2.3839,2.3839,2.3839,2.3838,2.3838,0,0,0,0,0,0,0,2.3952,2.3948,2.3921,2.392,2.3918,2.3912,2.3908,2.3899,2.3879,2.3892,2.389,2.3887,2.386,2.3855,2.3852,2.3838,2.3839,2.3838,2.3838,2.3837,2.3823,2.3824,0,0,0,0,0,0,2.3956,2.395,2.3922,2.392,2.3933,2.3911,2.3907,2.3902,2.3879,2.3875,2.3887,2.3886,2.3857,2.3854,2.3851,2.3849,2.3838,2.3837,2.3837,2.3823,2.3823,2.3824,0,0,0,0,0,0,2.3957,2.3954,2.3923,2.3935,2.393,2.3911,2.3905,2.3901,2.3896,2.3876,2.3872,2.3885,2.3856,2.3853,2.3845,2.3847,2.3837,2.3836,2.3823,2.3823,2.3823,2.3844,0,0,0,0,0,0,2.3958,2.3954,2.3954,2.3935,2.393,2.3918,2.3905,2.3901,2.3894,2.3892,2.3873,2.3869,2.3856,2.3846,2.3844,2.3846,2.3835,2.3822,2.3823,2.3823,2.3843,2.3845,2.3847,0,0,0,0,0,2.3959,2.396,2.3954,2.395,2.3929,2.3918,2.3915,2.39,2.3895,2.3894,2.3881,2.387,2.3848,2.3846,2.3842,2.3844,2.3822,2.3823,2.3823,2.3842,2.3845,2.3847,0,0,0,0,0,0,2.3978,2.3957,2.395,2.3945,2.3933,2.3914,2.3913,2.3903,2.3893,2.3891,2.3872,2.3868,2.3862,2.3852,2.3851,2.3842,2.3833,2.3833,2.3849,2.3851,2.3853,2.3856,2.3834,0,0,0,0,0,2.3982,2.3976,2.3957,2.3954,2.3949,2.3932,2.3927,2.3916,2.3904,2.3898,2.3885,2.3872,2.3863,2.3856,2.3846,2.3842,2.3837,2.3842,2.3844,2.3845,2.3845,2.3843,2.3845,2.3826,2.3826,2.3826,0,0,2.399,2.3977,2.3974,2.3958,2.3948,2.3941,2.3928,2.3921,2.3916,2.3897,2.3889,2.3879,2.3863,2.3858,2.3854,2.3849,2.385,2.3846,2.3848,2.3847,2.3844,2.3846,2.3847,2.3826,2.3826,2.3826,0,0,2.4,2.399,2.3987,2.3977,2.3963,2.3952,2.3951,2.3934,2.3926,2.3918,2.3904,2.3898,2.3881,2.3871,2.3864,2.3872,2.3861,2.3869,2.3879,2.3877,2.3879,2.388,2.3883,2.3884,2.3869,2.3869,2.3869,0,2.401,2.4,2.3986,2.398,2.3974,2.3958,2.3955,2.3946,2.3929,2.3924,2.3919,2.3899,2.3887,2.3879,2.3882,2.3876,2.3875,2.3871,2.388,2.3881,2.3882,2.3885,2.3886,2.387,2.387,2.387,2.387,0,2.4015,2.4008,2.4007,2.3992,2.3986,2.3981,2.3966,2.396,2.3951,2.3941,2.3933,2.3919,2.3906,2.3903,2.3893,2.3894,2.3892,2.3883,2.3874,2.3885,2.3887,2.3888,2.3872,2.3871,2.3871,2.3871,0,0,2.4035,2.4013,2.4013,2.4007,2.399,2.3985,2.398,2.3968,2.3964,2.3953,2.3949,2.3936,2.3929,2.392,2.3909,2.3908,2.3916,2.39,2.3899,2.3903,2.3916,2.3923,2.3924,2.3909,2.3909,2.3909,2.3918,0,2.4043,2.4034,2.4021,2.4016,2.401,2.3995,2.3991,2.398,2.3971,2.3964,2.3952,2.3944,2.3935,2.393,2.3927,2.3915,2.3918,2.3914,2.3904,2.3904,2.3909,2.3925,2.3932,2.3941,2.3918,2.3918,2.3919,0,2.405,2.4042,2.4036,2.4022,2.4019,2.4015,2.4004,2.3998,2.3985,2.3978,2.397,2.3959,2.3953,2.3945,2.3936,2.3934,2.3929,2.3922,2.3922,2.3921,2.3912,2.3924,2.3943,2.3944,2.392,2.392,2.392,0,2.4067,2.4053,2.4049,2.4043,2.4026,2.4024,2.4016,2.4004,2.3998,2.3988,2.3985,2.3974,2.3968,2.396,2.3946,2.3941,2.3939,2.3929,2.3933,2.3933,2.3933,2.3933,2.3951,2.393,2.393,2.393,2.393,0,2.4077,2.4074,2.4056,2.4053,2.405,2.4035,2.4033,2.4024,2.4013,2.4008,2.3994,2.399,2.3971,2.3965,2.3954,2.3949,2.3946,2.394,2.3937,2.3941,2.3942,2.3938,2.3937,2.393,2.393,2.393,2.393,0,2.4094,2.4082,2.4076,2.406,2.4056,2.4055,2.4041,2.4038,2.4028,2.4022,2.4019,2.4003,2.3995,2.398,2.3967,2.396,2.3957,2.3952,2.3962,2.396,2.3964,2.3964,2.398,2.3982,2.3959,2.3959,2.396,0,2.4101,2.4099,2.4084,2.408,2.4074,2.4067,2.4062,2.4048,2.4043,2.4029,2.4028,2.4018,2.401,2.3997,2.3984,2.3974,2.3969,2.3976,2.3968,2.3972,2.397,2.397,2.397,2.3977,2.3978,2.3978,2.3978,0,2.4116,2.411,2.4103,2.4095,2.4089,2.4081,2.4073,2.407,2.4054,2.4049,2.4041,2.4035,2.4022,2.4013,2.4002,2.3994,2.3983,2.3981,2.3981,2.3986,2.3992,2.3989,2.3967,2.3981,2.398,2.398,2.398,2.398,2.4128,2.4126,2.4116,2.4109,2.4101,2.4094,2.4091,2.4081,2.4074,2.4064,2.4055,2.4048,2.4036,2.402,2.4013,2.4007,2.4002,2.4002,2.4002,2.4003,2.4005,2.3993,2.4004,2.4004,2.4004,2.4004,2.4004,0,2.4143,2.4136,2.4129,2.4119,2.4113,2.4105,2.4096,2.4092,2.4086,2.4076,2.4069,2.406,2.4052,2.4039,2.4029,2.4027,2.4022,2.4025,2.4025,2.4023,2.4009,2.401,2.4029,2.4029,2.4029,2.4029,2.4029,2.4029,2.415,2.4146,2.4139,2.4132,2.4124,2.4118,2.4113,2.4107,2.4099,2.409,2.4084,2.4076,2.4065,2.4055,2.4047,2.4043,2.404,2.4045,2.404,2.4027,2.4024,2.4022,2.4023,2.4044,2.4044,2.4054,2.4054,2.4054]}]]